Regional Weather Roundup
Issued by NWS Sioux Falls, SD

Home | Current Version | Previous Version | Text Only | Print | Product List | Glossary On
Versions: 1 2 3 4 5 6 7 8 9 10 11 12 13 14 15 16 17 18 19 20 21 22 23 24 25 26 27 28 29 30 31 32 33 34 35 36 37 38 39 40 41 42 43 44 45 46 47 48 49 50
000
ASUS43 KFSD 031810
RWRFSD

WEATHER ROUNDUP FOR SE SOUTH DAKOTA/SW MINNESOTA/NW IOWA
NATIONAL WEATHER SERVICE SIOUX FALLS SD
100 PM CDT TUE MAY 03 2016

NOTE: "FAIR" INDICATES FEW OR NO CLOUDS BELOW 12,000 FEET WITH NO
SIGNIFICANT WEATHER AND OR OBSTRUCTIONS TO VISIBILITY.


SDZ038>040-050-052>070-031900-
SOUTHEAST SOUTH DAKOTA

CITY           SKY/WX    TMP DP  RH WIND       PRES   REMARKS
BROOKINGS      MOSUNNY   64  43  46 NW23G30   29.92F
CHAMBERLAIN    SUNNY     67  46  46 NW13      30.02F
6HR MIN TEMP:  41; 6HR MAX TEMP:  67;

HURON          SUNNY     68  45  43 NW12G22   29.95F
6HR MIN TEMP:  38; 6HR MAX TEMP:  68;

MADISON        FAIR      64  46  52 NW23G30   29.96F
MITCHELL       MOSUNNY   66  48  52 NW22      29.99F
6HR MIN TEMP:  44; 6HR MAX TEMP:  66;

SIOUX FALLS    MOSUNNY   64  44  48 W18G25    29.96F
6HR MIN TEMP:  36; 6HR MAX TEMP:  65;

WINNER         FAIR      66  44  45 NW14      30.05F
YANKTON        MOSUNNY   64  45  48 W16       30.00F
$$

MNZ071-072-080-081-089-090-097-098-031900-
SOUTHWEST MINNESOTA

CITY           SKY/WX    TMP DP  RH WIND       PRES   REMARKS
FAIRMONT       SUNNY     64  37  36 W14G22    29.91F
JACKSON        SUNNY     64  41  42 W22       29.93F
LUVERNE        MOSUNNY   63  41  45 W21G28    29.96F
MARSHALL       PTSUNNY   66  44  45 W23G29    29.89F
6HR MIN TEMP:  45; 6HR MAX TEMP:  67;

MONTEVIDEO     MOSUNNY   72  43  35 NW16      29.88F
PIPESTONE      MOSUNNY   64  43  45 NW17G29   29.94F
REDWOOD FALLS  SUNNY     68  40  35 W16       29.87F
TRACY          MOSUNNY   67  44  43 NW16G23   29.90F
WINDOM         MOSUNNY   64  43  45 W17G28    29.91F
WORTHINGTON    PTSUNNY   63  46  54 W21G29    29.94F
$$

IAZ001>003-012>014-020>022-031-032-NEZ013-014-SDZ071-031900-
NORTHWEST IOWA

CITY           SKY/WX    TMP DP  RH WIND       PRES   REMARKS
CHEROKEE       MOSUNNY   64  45  50 W14G21    29.98F
DENISON        MOSUNNY   64  45  48 W15       29.98F
ESTHERVILLE    SUNNY     64  44  48 W18G24    29.93F
LE MARS        MOSUNNY   66  46  48 W16       29.99F
ORANGE CITY    MOSUNNY   64  48  55 NW23      29.97F
SHELDON        MOSUNNY   64  45  48 W18G26    29.95F
SIOUX CITY     MOSUNNY   65  46  50 NW13      29.99F
6HR MIN TEMP:  43; 6HR MAX TEMP:  67;

SPENCER        MOSUNNY   65  43  44 W21G26    29.95F
6HR MIN TEMP:  39; 6HR MAX TEMP:  66;

STORM LAKE     MOSUNNY   64  45  48 W21G31    29.98F
$$

ABBREVIATIONS USED IN REMARKS
   TC - TEMPERATURE IN CELSIUS
  WCI - WIND CHILL INDEX
   HX - HEAT INDEX
  VSB - VISIBILITY




USA.gov is the U.S. government's official web portal to all federal, state and local government web resources and services.